Weather History for KIZG - October, 2013

Change the Weather History Date:

Monday, October 28, 2013

  Actual Average Record
Temperature  
Mean Temperature 38 °F -  
Max Temperature 55 °F 51 °F 70 °F (2010)
Min Temperature 24 °F 29 °F 17 °F (1999)
Degree Days  
Heating Degree Days 26    
Moisture  
Dew Point 26 °F    
Average Humidity 66    
Maximum Humidity 92    
Minimum Humidity 43    
Precipitation  
Precipitation 0.00 in - - ()
Sea Level Pressure  
Sea Level Pressure 30.13 in    
Wind  
Wind Speed 4 mph (West)    
Max Wind Speed 18 mph    
Max Gust Speed 30 mph    
Visibility 10 miles    
Events Rain    
Averages and records for this station are not official NWS values.
T = Trace of Precipitation, MM = Missing Value Source: NWS Daily Summary

Daily Weather History Graph

Daily Weather History Graph

Search for Another Location

Airport or City:

Trip Planner

Search our weather history database for the weather conditions in past years. The results will help you decide how hot, cold, wet, or windy it might be!

Date:

Astronomy

Oct. 28, 2013 Rise Set
Actual Time 7:15 AM EDT 5:39 PM EDT
Civil Twilight 6:45 AM EDT 6:08 PM EDT
Nautical Twilight 6:11 AM EDT 6:42 PM EDT
Astronomical Twilight 5:38 AM EDT 7:16 PM EDT
Moon 12:53 AM EDT (10/28) 2:30 PM EDT (10/28)
Length of Visible Light 11h 23m
Length of Day
10h 23m
Waning Crescent, 34% of the Moon is Illuminated
Oct 28
Waning Crescent
Nov 3
New
Nov 10
First Quarter
Nov 17
Full
Nov 25
Last Quarter

Hourly Weather History & Observations

Time (EDT) Temp. Windchill Dew Point Humidity Pressure Visibility Wind Dir Wind Speed Gust Speed Precip Events Conditions
12:54 AM 30.0 °F - 26.1 °F 85% 30.02 in 10.0 mi Calm Calm - N/A   Mostly Cloudy
1:54 AM 33.1 °F 30.0 °F 26.1 °F 75% 30.02 in 10.0 mi WSW 3.5 mph - N/A   Clear
2:54 AM 28.9 °F 23.9 °F 25.0 °F 85% 30.03 in 10.0 mi SW 4.6 mph - N/A   Clear
3:54 AM 28.0 °F - 25.0 °F 88% 30.02 in 10.0 mi Calm Calm - N/A   Clear
4:54 AM 27.0 °F - 25.0 °F 92% 30.04 in 10.0 mi Calm Calm - N/A   Mostly Cloudy
5:54 AM 33.1 °F 28.7 °F 28.0 °F 82% 30.04 in 10.0 mi SSW 4.6 mph - N/A   Overcast
6:54 AM 34.0 °F - 28.9 °F 82% 30.04 in 10.0 mi Calm Calm - N/A   Overcast
7:54 AM 33.1 °F - 28.0 °F 82% 30.05 in 10.0 mi Calm Calm - N/A   Clear
8:54 AM 41.0 °F - 30.9 °F 67% 30.06 in 10.0 mi Calm Calm - N/A   Scattered Clouds
9:54 AM 46.0 °F 41.4 °F 32.0 °F 58% 30.04 in 10.0 mi SW 9.2 mph - N/A   Partly Cloudy
10:54 AM 50.0 °F - 32.0 °F 50% 30.02 in 10.0 mi SW 9.2 mph 17.3 mph N/A   Clear
11:54 AM 52.0 °F - 30.9 °F 45% 30.02 in 10.0 mi SW 15.0 mph 19.6 mph N/A   Mostly Cloudy
12:54 PM 51.1 °F - 30.9 °F 46% 30.03 in 10.0 mi WSW 8.1 mph - N/A   Mostly Cloudy
1:54 PM 46.9 °F - 32.0 °F 56% 30.09 in 10.0 mi WNW 10.4 mph 20.7 mph 0.00 in Rain Light Rain
2:54 PM 48.0 °F - 30.0 °F 50% 30.13 in 10.0 mi WNW 18.4 mph 29.9 mph 0.00 in Rain Light Rain
3:54 PM 46.0 °F 41.0 °F 25.0 °F 44% 30.15 in 10.0 mi West 10.4 mph 18.4 mph 0.00 in   Partly Cloudy
4:54 PM 45.0 °F 41.2 °F 24.1 °F 44% 30.20 in 10.0 mi Variable 6.9 mph - N/A   Scattered Clouds
5:54 PM 44.1 °F 39.0 °F 23.0 °F 43% 30.22 in 10.0 mi West 9.2 mph 16.1 mph N/A   Overcast
6:54 PM 42.1 °F 38.4 °F 21.0 °F 43% 30.27 in 10.0 mi WNW 5.8 mph - N/A   Mostly Cloudy
7:54 PM 37.9 °F 35.5 °F 21.0 °F 51% 30.31 in 10.0 mi WNW 3.5 mph - N/A   Clear
8:54 PM 30.0 °F - 21.0 °F 69% 30.33 in 10.0 mi Calm Calm - N/A   Clear
9:54 PM 27.0 °F 20.5 °F 19.9 °F 75% 30.33 in 10.0 mi NW 5.8 mph - N/A   Clear
10:54 PM 25.0 °F - 19.9 °F 81% 30.35 in 10.0 mi Calm Calm - N/A   Clear
11:54 PM 24.1 °F - 19.9 °F 84% 30.37 in 10.0 mi Calm Calm - N/A   Clear